Terug naar catalogus

STARLINK-35911

ActiefCommunicatieVLEO
NORAD 68051·PAYLOAD·🇺🇸 United States

Gelanceerd Mar 2, 2026 vanaf Vandenberg Space Force Base

Loading…

Volgende Passages (komende 24 uur)

TLE

VersSource: CelesTrak SupGP

Epoch: Sep 15, 2026, 02:54 UTC

1 68051C 26041M   26258.12131944 -.00071193  00000+0 -21021-2 0  2589
2 68051  53.1580 246.8995 0001384  90.1285 301.1228 15.34446127    13

Volg STARLINK-35911 in realtime met AllMySat

Download on the App Store